Time,TemperatureF,DewpointF,PressureIn,WindDirection,WindDirectionDegrees,WindSpeedMPH,WindSpeedGustMPH,Humidity,HourlyPrecipIn,Conditions,Clouds,dailyrainin,SoftwareType,DateUTC
2013-03-03 02:32:00,32.0,27.0,-100.00,WNW,285,2.0,6.0,83,-99.99,,,-99.99,,2013-03-03 07:32:00,
2013-03-03 03:01:00,32.0,28.0,-100.00,NW,305,3.0,7.0,85,-99.99,,,-99.99,,2013-03-03 08:01:00,
2013-03-03 03:11:00,31.0,28.0,-100.00,West,280,2.0,7.0,86,-99.99,,,-99.99,,2013-03-03 08:11:00,
2013-03-03 03:21:00,31.0,28.0,-100.00,WNW,290,2.0,7.0,87,-99.99,,,-99.99,,2013-03-03 08:21:00,
2013-03-03 03:32:00,31.0,28.0,-100.00,WNW,295,3.0,10.0,88,-99.99,,,-99.99,,2013-03-03 08:32:00,
2013-03-03 03:42:00,31.0,28.0,-100.00,West,280,2.0,8.0,88,-99.99,,,-99.99,,2013-03-03 08:42:00,
2013-03-03 03:53:00,31.0,28.0,-100.00,WSW,255,3.0,9.0,88,-99.99,,,-99.99,,2013-03-03 08:53:00,
2013-03-03 04:02:00,31.0,28.0,-100.00,West,280,5.0,8.0,88,-99.99,,,-99.99,,2013-03-03 09:02:00,
2013-03-03 04:12:00,31.0,28.0,-100.00,West,270,2.0,7.0,88,-99.99,,,-99.99,,2013-03-03 09:12:00,
2013-03-03 04:21:00,31.0,28.0,-100.00,West,275,5.0,8.0,88,-99.99,,,-99.99,,2013-03-03 09:21:00,
2013-03-03 04:30:00,31.0,28.0,-100.00,WSW,250,3.0,7.0,90,-99.99,,,-99.99,,2013-03-03 09:30:00,
2013-03-03 04:32:00,31.0,28.0,-100.00,North,355,3.0,9.0,88,-99.99,,,-99.99,,2013-03-03 09:32:00,
2013-03-03 04:42:00,31.0,28.0,-100.00,West,275,2.0,9.0,88,-99.99,,,-99.99,,2013-03-03 09:42:00,
2013-03-03 04:51:00,31.0,28.0,-100.00,WNW,295,5.0,8.0,88,-99.99,,,-99.99,,2013-03-03 09:51:00,
2013-03-03 05:01:00,31.0,28.0,-100.00,WNW,295,5.0,8.0,88,-99.99,,,-99.99,,2013-03-03 10:01:00,
2013-03-03 05:12:00,31.0,28.0,-100.00,WSW,250,3.0,7.0,90,-99.99,,,-99.99,,2013-03-03 10:12:00,
2013-03-03 05:21:00,31.0,28.0,-100.00,WSW,250,3.0,7.0,90,-99.99,,,-99.99,,2013-03-03 10:21:00,
2013-03-03 05:42:00,30.0,28.0,-100.00,West,270,3.0,8.0,92,-99.99,,,-99.99,,2013-03-03 10:42:00,
2013-03-03 05:52:00,30.0,28.0,-100.00,West,270,3.0,8.0,92,-99.99,,,-99.99,,2013-03-03 10:52:00,
2013-03-03 06:02:00,30.0,28.0,-100.00,WSW,250,2.0,6.0,93,-99.99,,,-99.99,,2013-03-03 11:02:00,
2013-03-03 06:11:00,30.0,28.0,-100.00,West,275,2.0,6.0,93,-99.99,,,-99.99,,2013-03-03 11:11:00,
2013-03-03 06:22:00,30.0,28.0,-100.00,WNW,285,3.0,7.0,92,-99.99,,,-99.99,,2013-03-03 11:22:00,
2013-03-03 06:32:00,30.0,28.0,-100.00,West,275,2.0,8.0,93,-99.99,,,-99.99,,2013-03-03 11:32:00,
2013-03-03 06:42:00,30.0,28.0,-100.00,WSW,245,2.0,7.0,93,-99.99,,,-99.99,,2013-03-03 11:42:00,
2013-03-03 06:52:00,30.0,28.0,-100.00,WSW,245,3.0,7.0,93,-99.99,,,-99.99,,2013-03-03 11:52:00,
2013-03-03 07:02:00,30.0,29.0,-100.00,West,265,5.0,7.0,94,-99.99,,,-99.99,,2013-03-03 12:02:00,
2013-03-03 07:11:00,30.0,29.0,-100.00,WSW,240,2.0,7.0,94,-99.99,,,-99.99,,2013-03-03 12:11:00,
2013-03-03 07:22:00,30.0,29.0,-100.00,West,270,2.0,7.0,94,-99.99,,,-99.99,,2013-03-03 12:22:00,
2013-03-03 07:32:00,30.0,29.0,-100.00,WSW,250,2.0,7.0,94,-99.99,,,-99.99,,2013-03-03 12:32:00,
2013-03-03 07:43:00,30.0,29.0,-100.00,WSW,240,5.0,6.0,94,-99.99,,,-99.99,,2013-03-03 12:43:00,
2013-03-03 07:52:00,30.0,29.0,-100.00,North,0,1.0,8.0,94,-99.99,,,-99.99,,2013-03-03 12:52:00,
2013-03-03 08:02:00,30.0,29.0,-100.00,SW,230,2.0,5.0,94,-99.99,,,-99.99,,2013-03-03 13:02:00,
2013-03-03 08:11:00,30.0,29.0,-100.00,WSW,245,3.0,8.0,94,-99.99,,,-99.99,,2013-03-03 13:11:00,
2013-03-03 08:22:00,30.0,29.0,-100.00,WSW,255,2.0,8.0,94,-99.99,,,-99.99,,2013-03-03 13:22:00,
2013-03-03 08:32:00,30.0,29.0,-100.00,West,260,3.0,8.0,94,-99.99,,,-99.99,,2013-03-03 13:32:00,
2013-03-03 08:42:00,30.0,29.0,-100.00,West,260,2.0,7.0,95,-99.99,,,-99.99,,2013-03-03 13:42:00,
2013-03-03 08:52:00,30.0,29.0,-100.00,West,265,3.0,8.0,95,-99.99,,,-99.99,,2013-03-03 13:52:00,
2013-03-03 09:02:00,30.0,29.0,-100.00,WSW,250,5.0,8.0,95,-99.99,,,-99.99,,2013-03-03 14:02:00,
2013-03-03 09:11:00,31.0,29.0,-100.00,WSW,245,3.0,8.0,95,-99.99,,,-99.99,,2013-03-03 14:11:00,
2013-03-03 09:22:00,31.0,29.0,-100.00,WSW,250,5.0,9.0,94,-99.99,,,-99.99,,2013-03-03 14:22:00,
2013-03-03 09:32:00,31.0,29.0,-100.00,West,270,2.0,8.0,95,-99.99,,,-99.99,,2013-03-03 14:32:00,
2013-03-03 09:42:00,31.0,30.0,-100.00,West,260,3.0,7.0,94,-99.99,,,-99.99,,2013-03-03 14:42:00,
2013-03-03 09:52:00,31.0,30.0,-100.00,West,275,3.0,8.0,94,-99.99,,,-99.99,,2013-03-03 14:52:00,
2013-03-03 10:02:00,31.0,30.0,-100.00,WSW,255,3.0,10.0,95,-99.99,,,-99.99,,2013-03-03 15:02:00,
2013-03-03 10:10:00,33.0,31.0,-100.00,WSW,245,5.0,8.0,92,-99.99,,,-99.99,,2013-03-03 15:10:00,
2013-03-03 10:11:00,32.0,30.0,-100.00,WSW,250,5.0,8.0,94,-99.99,,,-99.99,,2013-03-03 15:11:00,
2013-03-03 10:22:00,32.0,30.0,-100.00,WSW,250,5.0,10.0,93,-99.99,,,-99.99,,2013-03-03 15:22:00,
2013-03-03 10:32:00,32.0,30.0,-100.00,WSW,245,6.0,9.0,92,-99.99,,,-99.99,,2013-03-03 15:32:00,
2013-03-03 10:42:00,32.0,30.0,-100.00,WSW,245,5.0,9.0,92,-99.99,,,-99.99,,2013-03-03 15:42:00,
2013-03-03 10:52:00,33.0,31.0,-100.00,WSW,245,5.0,8.0,92,-99.99,,,-99.99,,2013-03-03 15:52:00,
2013-03-03 11:02:00,33.0,31.0,-100.00,WSW,245,5.0,8.0,92,-99.99,,,-99.99,,2013-03-03 16:02:00,
2013-03-03 12:12:00,35.0,32.0,-100.00,West,265,5.0,12.0,90,-99.99,,,-99.99,,2013-03-03 17:12:00,
2013-03-03 12:22:00,35.0,32.0,-100.00,WSW,255,6.0,9.0,89,-99.99,,,-99.99,,2013-03-03 17:22:00,
2013-03-03 12:32:00,36.0,32.0,-100.00,WSW,255,2.0,10.0,87,-99.99,,,-99.99,,2013-03-03 17:32:00,
2013-03-03 12:42:00,36.0,32.0,-100.00,WSW,240,6.0,10.0,87,-99.99,,,-99.99,,2013-03-03 17:42:00,
2013-03-03 12:52:00,36.0,32.0,-100.00,WNW,285,3.0,8.0,85,-99.99,,,-99.99,,2013-03-03 17:52:00,
2013-03-03 13:02:00,36.0,32.0,-100.00,WSW,250,2.0,9.0,85,-99.99,,,-99.99,,2013-03-03 18:02:00,
2013-03-03 13:11:00,36.0,32.0,-100.00,WSW,255,5.0,9.0,84,-99.99,,,-99.99,,2013-03-03 18:11:00,
2013-03-03 13:22:00,37.0,32.0,-100.00,WNW,290,5.0,8.0,83,-99.99,,,-99.99,,2013-03-03 18:22:00,
2013-03-03 13:32:00,38.0,32.0,-100.00,WSW,245,6.0,8.0,81,-99.99,,,-99.99,,2013-03-03 18:32:00,
2013-03-03 13:42:00,38.0,33.0,-100.00,WNW,290,3.0,9.0,80,-99.99,,,-99.99,,2013-03-03 18:42:00,
2013-03-03 13:52:00,39.0,33.0,-100.00,WNW,295,3.0,7.0,80,-99.99,,,-99.99,,2013-03-03 18:52:00,
2013-03-03 14:02:00,39.0,33.0,-100.00,West,275,5.0,8.0,80,-99.99,,,-99.99,,2013-03-03 19:02:00,
2013-03-03 14:11:00,38.0,33.0,-100.00,WNW,285,3.0,9.0,83,-99.99,,,-99.99,,2013-03-03 19:11:00,
2013-03-03 14:22:00,38.0,33.0,-100.00,West,275,5.0,9.0,83,-99.99,,,-99.99,,2013-03-03 19:22:00,
2013-03-03 14:32:00,37.0,33.0,-100.00,West,265,3.0,8.0,84,-99.99,,,-99.99,,2013-03-03 19:32:00,
2013-03-03 14:42:00,37.0,33.0,-100.00,West,280,2.0,7.0,83,-99.99,,,-99.99,,2013-03-03 19:42:00,
2013-03-03 14:52:00,38.0,33.0,-100.00,West,265,5.0,6.0,83,-99.99,,,-99.99,,2013-03-03 19:52:00,
2013-03-03 15:02:00,38.0,33.0,-100.00,West,260,2.0,6.0,81,-99.99,,,-99.99,,2013-03-03 20:02:00,
2013-03-03 15:11:00,38.0,32.0,-100.00,West,270,3.0,9.0,80,-99.99,,,-99.99,,2013-03-03 20:11:00,
2013-03-03 15:22:00,38.0,32.0,-100.00,SW,225,5.0,8.0,80,-99.99,,,-99.99,,2013-03-03 20:22:00,
2013-03-03 15:32:00,38.0,33.0,-100.00,SW,235,5.0,9.0,80,-99.99,,,-99.99,,2013-03-03 20:32:00,
2013-03-03 15:42:00,38.0,33.0,-100.00,SW,225,3.0,10.0,79,-99.99,,,-99.99,,2013-03-03 20:42:00,
2013-03-03 15:52:00,38.0,33.0,-100.00,WSW,245,3.0,10.0,79,-99.99,,,-99.99,,2013-03-03 20:52:00,
2013-03-03 16:02:00,38.0,33.0,-100.00,WSW,240,2.0,9.0,79,-99.99,,,-99.99,,2013-03-03 21:02:00,
2013-03-03 16:10:00,39.0,32.0,-100.00,WSW,245,2.0,8.0,75,-99.99,,,-99.99,,2013-03-03 21:10:00,
2013-03-03 16:12:00,39.0,32.0,-100.00,West,260,3.0,9.0,78,-99.99,,,-99.99,,2013-03-03 21:12:00,
2013-03-03 16:22:00,39.0,32.0,-100.00,WSW,255,5.0,9.0,76,-99.99,,,-99.99,,2013-03-03 21:22:00,
2013-03-03 16:32:00,39.0,32.0,-100.00,WSW,245,3.0,10.0,76,-99.99,,,-99.99,,2013-03-03 21:32:00,
2013-03-03 16:42:00,39.0,32.0,-100.00,WSW,255,3.0,7.0,76,-99.99,,,-99.99,,2013-03-03 21:42:00,
2013-03-03 16:52:00,39.0,32.0,-100.00,WSW,245,2.0,8.0,75,-99.99,,,-99.99,,2013-03-03 21:52:00,
2013-03-03 17:02:00,39.0,32.0,-100.00,WSW,245,2.0,8.0,75,-99.99,,,-99.99,,2013-03-03 22:02:00,
2013-03-03 17:32:00,39.0,31.0,-100.00,WSW,240,2.0,5.0,73,-99.99,,,-99.99,,2013-03-03 22:32:00,
2013-03-03 17:42:00,39.0,30.0,-100.00,NNW,330,1.0,5.0,72,-99.99,,,-99.99,,2013-03-03 22:42:00,
2013-03-03 17:52:00,38.0,30.0,-100.00,West,270,5.0,10.0,70,-99.99,,,-99.99,,2013-03-03 22:52:00,
2013-03-03 18:02:00,38.0,29.0,-100.00,WSW,250,2.0,5.0,69,-99.99,,,-99.99,,2013-03-03 23:02:00,
2013-03-03 18:11:00,38.0,29.0,-100.00,West,260,3.0,7.0,68,-99.99,,,-99.99,,2013-03-03 23:11:00,
2013-03-03 18:22:00,38.0,28.0,-100.00,West,265,2.0,10.0,68,-99.99,,,-99.99,,2013-03-03 23:22:00,
2013-03-03 18:32:00,38.0,29.0,-100.00,WSW,250,2.0,5.0,69,-99.99,,,-99.99,,2013-03-03 23:32:00,
2013-03-03 18:42:00,38.0,29.0,-100.00,West,275,2.0,5.0,70,-99.99,,,-99.99,,2013-03-03 23:42:00,
2013-03-03 18:52:00,37.0,28.0,-100.00,WSW,245,1.0,6.0,69,-99.99,,,-99.99,,2013-03-03 23:52:00,
2013-03-03 19:02:00,37.0,29.0,-100.00,WSW,245,2.0,5.0,71,-99.99,,,-99.99,,2013-03-04 00:02:00,
2013-03-03 19:11:00,37.0,28.0,-100.00,WSW,245,2.0,5.0,69,-99.99,,,-99.99,,2013-03-04 00:11:00,
2013-03-03 19:22:00,-999.0,-99.9,-100.00,WSW,240,1.0,6.0,68,-99.99,,,-99.99,,2013-03-04 00:22:00,
2013-03-03 19:42:00,37.0,27.0,-100.00,West,265,3.0,6.0,68,-99.99,,,-99.99,,2013-03-04 00:42:00,
2013-03-03 19:52:00,37.0,27.0,-100.00,SW,225,2.0,7.0,68,-99.99,,,-99.99,,2013-03-04 00:52:00,
2013-03-03 20:02:00,37.0,27.0,-100.00,West,280,3.0,7.0,67,-99.99,,,-99.99,,2013-03-04 01:02:00,
2013-03-03 20:12:00,37.0,27.0,-100.00,West,265,2.0,6.0,67,-99.99,,,-99.99,,2013-03-04 01:12:00,
2013-03-03 20:22:00,37.0,27.0,-100.00,West,280,2.0,9.0,67,-99.99,,,-99.99,,2013-03-04 01:22:00,
2013-03-03 20:32:00,36.0,27.0,-100.00,WNW,285,2.0,10.0,68,-99.99,,,-99.99,,2013-03-04 01:32:00,
2013-03-03 20:42:00,36.0,27.0,-100.00,West,265,5.0,9.0,69,-99.99,,,-99.99,,2013-03-04 01:42:00,
2013-03-03 20:52:00,36.0,27.0,-100.00,WNW,295,5.0,12.0,69,-99.99,,,-99.99,,2013-03-04 01:52:00,
2013-03-03 21:01:00,36.0,27.0,-100.00,NNE,15,5.0,13.0,70,-99.99,,,-99.99,,2013-03-04 02:01:00,
2013-03-03 21:11:00,35.0,28.0,-100.00,West,275,5.0,16.0,73,-99.99,,,-99.99,,2013-03-04 02:11:00,
2013-03-03 21:22:00,35.0,28.0,-100.00,WNW,295,5.0,10.0,76,-99.99,,,-99.99,,2013-03-04 02:22:00,
2013-03-03 21:32:00,34.0,28.0,-100.00,WNW,295,3.0,12.0,78,-99.99,,,-99.99,,2013-03-04 02:32:00,
2013-03-03 21:42:00,34.0,28.0,-100.00,NW,315,5.0,10.0,78,-99.99,,,-99.99,,2013-03-04 02:42:00,
2013-03-03 21:52:00,34.0,28.0,-100.00,WNW,285,3.0,13.0,78,-99.99,,,-99.99,,2013-03-04 02:52:00,
2013-03-03 22:02:00,34.0,28.0,-100.00,West,275,2.0,9.0,78,-99.99,,,-99.99,,2013-03-04 03:02:00,
2013-03-03 22:10:00,34.0,26.0,-100.00,West,270,5.0,9.0,71,-99.99,,,-99.99,,2013-03-04 03:10:00,
2013-03-03 22:11:00,34.0,28.0,-100.00,West,275,2.0,9.0,78,-99.99,,,-99.99,,2013-03-04 03:11:00,
2013-03-03 22:22:00,34.0,27.0,-100.00,West,280,3.0,7.0,76,-99.99,,,-99.99,,2013-03-04 03:22:00,
2013-03-03 22:32:00,34.0,27.0,-100.00,NW,320,5.0,9.0,73,-99.99,,,-99.99,,2013-03-04 03:32:00,
2013-03-03 22:42:00,34.0,26.0,-100.00,NNW,345,3.0,10.0,72,-99.99,,,-99.99,,2013-03-04 03:42:00,
2013-03-03 22:52:00,34.0,26.0,-100.00,West,270,5.0,9.0,71,-99.99,,,-99.99,,2013-03-04 03:52:00,
2013-03-03 23:02:00,34.0,26.0,-100.00,West,270,5.0,9.0,71,-99.99,,,-99.99,,2013-03-04 04:02:00,